[[{"header":{"parameterUnit":"m.s-1","parameterCategory":1,"la1":30.2991,"la2":30.254,"lo1":-89.0895,"lo2":-89.0444,"dy":0.0017,"dx":0.0017,"nx":28,"ny":28,"refTime":"2025-11-18T09:00:00:Z","depth":0,"parameterNumber":2,"parameterNumberName":"U-component_of_WINDS"},"data":[0,0,0,0,0,0,0,0,0,0,0,0,0,0,0,0,0,0,0,0,0,0,0,0,0,0,0,0,0,0,0,0,0,0,0,0,0,0,0,0,0,0,0,0,0,0,0,0,0,0,0,0,0,0,0,0,0,0,-0.5135,-0.5135,0,-0.5115,-0.5115,-0.5115,-0.509,-0.5089,-0.5089,-0.5088,-0.5068,-0.5068,-0.5068,0,0,0,0,0,0,0,0,0,0,0,0,0,-0.5154,-0.5153,-0.5135,-0.5135,-0.5135,-0.5115,-0.5115,-0.5115,-0.509,-0.5089,-0.5089,-0.5088,-0.5068,-0.5068,-0.5068,0,0,0,0,0,0,0,0,0,0,0,0,0,-0.5141,-0.5153,-0.5135,-0.512,-0.5118,-0.5115,-0.5115,-0.5115,-0.509,-0.5089,-0.5089,-0.5088,-0.5068,-0.5068,-0.5068,-0.5078,0,0,-0.5067,-0.5067,0,0,0,0,0,0,0,0,-0.5142,-0.514,-0.5123,-0.5121,-0.5119,-0.5104,-0.5114,-0.5102,-0.509,-0.5101,-0.5088,-0.5088,-0.5081,-0.5079,-0.5077,-0.5077,-0.5076,-0.5067,-0.5067,-0.5067,-0.5067,0,0,0,0,0,0,0,-0.5142,-0.5141,-0.5127,-0.5122,-0.512,-0.5115,-0.5112,-0.5112,-0.5094,-0.51,-0.5098,-0.5096,-0.508,-0.5077,-0.5076,-0.5076,-0.5067,-0.5067,-0.5066,-0.5066,-0.5085,-0.5086,0,0,0,0,0,0,-0.5146,-0.5142,-0.5128,-0.5127,-0.5129,-0.5115,-0.5112,-0.511,-0.5094,-0.5091,-0.5096,-0.5095,-0.5078,-0.5076,-0.5075,-0.5087,-0.5067,-0.5066,-0.5066,-0.5084,-0.5085,-0.5086,0,0,0,0,0,0,-0.5146,-0.5145,-0.5129,-0.5134,-0.5131,-0.5115,-0.5113,-0.511,-0.5107,-0.5092,-0.5088,-0.5097,-0.5077,-0.5076,-0.5078,-0.5086,-0.5066,-0.5066,-0.5084,-0.5085,-0.5085,-0.511,0,0,0,0,0,0,-0.5147,-0.5145,-0.5148,-0.5134,-0.5131,-0.5131,-0.5113,-0.511,-0.5107,-0.5104,-0.5091,-0.5089,-0.5077,-0.5078,-0.5078,-0.5085,-0.5066,-0.5083,-0.5084,-0.5085,-0.5109,-0.5112,-0.5115,0,0,0,0,0,-0.5147,-0.5156,-0.5149,-0.5147,-0.5135,-0.5132,-0.513,-0.5116,-0.5107,-0.5111,-0.5101,-0.5089,-0.5085,-0.5079,-0.5078,-0.5085,-0.5082,-0.5084,-0.5085,-0.5107,-0.5111,-0.5115,0,0,0,0,0,0,-0.5171,-0.5154,-0.5145,-0.5149,-0.5142,-0.5128,-0.5131,-0.5121,-0.5116,-0.5114,-0.5097,-0.5095,-0.5099,-0.5092,-0.5085,-0.5095,-0.5082,-0.5083,-0.5099,-0.5103,-0.5106,-0.5107,-0.5066,0,0,0,0,0,-0.5177,-0.5176,-0.5161,-0.5166,-0.5163,-0.5148,-0.5146,-0.5136,-0.5128,-0.5125,-0.5115,-0.5108,-0.5105,-0.5104,-0.51,-0.5108,-0.5105,-0.5113,-0.5116,-0.5118,-0.512,-0.5124,-0.5127,-0.5091,-0.5091,-0.509,0,0,-0.5189,-0.5179,-0.5179,-0.517,-0.5164,-0.5163,-0.5145,-0.5145,-0.5145,-0.5125,-0.5126,-0.5119,-0.511,-0.5115,-0.5117,-0.511,-0.5129,-0.512,-0.5122,-0.5122,-0.5126,-0.5129,-0.5132,-0.5092,-0.5091,-0.5091,0,0,-0.5211,-0.5203,-0.5207,-0.52,-0.5191,-0.5181,-0.5182,-0.5169,-0.5164,-0.5165,-0.515,-0.5149,-0.5145,-0.5139,-0.5136,-0.5157,-0.5146,-0.5156,-0.5172,-0.5177,-0.5179,-0.5182,-0.519,-0.5193,-0.5158,-0.5158,-0.5158,0,-0.5227,-0.5225,-0.521,-0.5211,-0.5208,-0.519,-0.5194,-0.5189,-0.5179,-0.5177,-0.5169,-0.5164,-0.5157,-0.516,-0.5166,-0.5163,-0.5164,-0.5157,-0.518,-0.5183,-0.5185,-0.5192,-0.5195,-0.5159,-0.5159,-0.5159,-0.5159,0,-0.5245,-0.5244,-0.5249,-0.5239,-0.5237,-0.5239,-0.5225,-0.5225,-0.5215,-0.5207,-0.5209,-0.5199,-0.5194,-0.5194,-0.5185,-0.5197,-0.5193,-0.5183,-0.517,-0.519,-0.5196,-0.5199,-0.5161,-0.5161,-0.516,-0.516,0,0,-0.528,-0.5264,-0.5265,-0.5261,-0.525,-0.5249,-0.5251,-0.5246,-0.5246,-0.524,-0.5242,-0.5239,-0.523,-0.5226,-0.5216,-0.522,-0.5238,-0.521,-0.5209,-0.5215,-0.5251,-0.5259,-0.5263,-0.5231,-0.5231,-0.5231,-0.5252,0,-0.53,-0.5302,-0.529,-0.5296,-0.5295,-0.5279,-0.5281,-0.5274,-0.5267,-0.5265,-0.5257,-0.5255,-0.5243,-0.5241,-0.5244,-0.5235,-0.5245,-0.5233,-0.5232,-0.5233,-0.5235,-0.5266,-0.5274,-0.5294,-0.5255,-0.5255,-0.5255,0,-0.5322,-0.5318,-0.5324,-0.5313,-0.5312,-0.5314,-0.5309,-0.5308,-0.5301,-0.5295,-0.5291,-0.528,-0.5282,-0.5269,-0.5272,-0.5265,-0.5264,-0.526,-0.526,-0.5259,-0.5245,-0.5266,-0.53,-0.5303,-0.5259,-0.5259,-0.5259,0,-0.5348,-0.5343,-0.5346,-0.5343,-0.5331,-0.5333,-0.5327,-0.5319,-0.5318,-0.5313,-0.5312,-0.5308,-0.5306,-0.5304,-0.5292,-0.5284,-0.5297,-0.5283,-0.5292,-0.5293,-0.5295,-0.5295,-0.533,-0.5295,-0.5295,-0.5295,-0.5295,0,-0.5371,-0.5375,-0.5358,-0.536,-0.5365,-0.535,-0.5356,-0.5349,-0.5342,-0.5343,-0.5329,-0.533,-0.5314,-0.5314,-0.5305,-0.5309,-0.5308,-0.5304,-0.5302,-0.5305,-0.5306,-0.5304,-0.5303,-0.5295,-0.5295,-0.5295,-0.5295,0,-0.54,-0.5388,-0.5391,-0.5379,-0.5376,-0.538,-0.537,-0.5372,-0.5363,-0.5365,-0.5364,-0.5351,-0.535,-0.5339,-0.5335,-0.5329,-0.5337,-0.5331,-0.5339,-0.5337,-0.5348,-0.5347,-0.5382,-0.5386,-0.5349,-0.5349,-0.535,0,-0.5415,-0.5419,-0.5407,-0.5407,-0.5402,-0.5401,-0.54,-0.5386,-0.5385,-0.5377,-0.538,-0.5378,-0.5375,-0.5375,-0.5365,-0.5363,-0.5357,-0.537,-0.5357,-0.5361,-0.5358,-0.5358,-0.5358,-0.5373,-0.5373,-0.5373,-0.5374,0,-0.5444,-0.5439,-0.5436,-0.5433,-0.5431,-0.5427,-0.5423,-0.5423,-0.5408,-0.5408,-0.5407,-0.5405,-0.5401,-0.54,-0.5396,-0.5391,-0.538,-0.5378,-0.538,-0.5384,-0.5388,-0.5386,-0.5347,-0.5377,-0.5377,-0.5377,-0.5376,-0.5376,-0.5467,-0.5469,-0.5462,-0.546,-0.5456,-0.5452,-0.5453,-0.5445,-0.5444,-0.544,-0.5432,-0.5432,-0.5426,-0.5419,-0.5415,-0.5416,-0.5409,-0.5412,-0.5413,-0.5414,-0.5416,-0.5389,-0.5415,-0.5415,-0.5415,-0.5415,-0.5415,0,-0.5495,-0.549,-0.5489,-0.5483,-0.5482,-0.5472,-0.5467,-0.5467,-0.5467,-0.5462,-0.546,-0.5459,-0.5457,-0.5448,-0.5446,-0.5448,-0.5443,-0.5448,-0.5447,-0.5447,-0.5422,-0.542,-0.5452,-0.5452,-0.5452,-0.5452,-0.5452,-0.5452,-0.551,-0.5514,-0.5507,-0.5509,-0.5503,-0.5503,-0.5501,-0.5498,-0.5494,-0.5494,-0.5492,-0.5486,-0.548,-0.5477,-0.5475,-0.5473,-0.5473,-0.5479,-0.5475,-0.5452,-0.5448,-0.5445,-0.5443,-0.5479,-0.5479,-0.5499,-0.55,-0.55]},{"header":{"parameterUnit":"m.s-1","parameterCategory":1,"la1":30.2991,"la2":30.254,"lo1":-89.0895,"lo2":-89.0444,"dy":0.0017,"dx":0.0017,"nx":28,"ny":28,"refTime":"2025-11-18T09:00:00:Z","depth":0,"parameterNumber":3,"parameterNumberName":"V-component_of_WINDS"},"data":[0,0,0,0,0,0,0,0,0,0,0,0,0,0,0,0,0,0,0,0,0,0,0,0,0,0,0,0,0,0,0,0,0,0,0,0,0,0,0,0,0,0,0,0,0,0,0,0,0,0,0,0,0,0,0,0,0,0,1.6458,1.6457,0,1.6414,1.6413,1.6413,1.6421,1.6422,1.6423,1.6423,1.6372,1.637,1.6368,0,0,0,0,0,0,0,0,0,0,0,0,0,1.6544,1.6542,1.6458,1.6457,1.6457,1.6414,1.6413,1.6413,1.6421,1.6422,1.6423,1.6424,1.6373,1.637,1.6368,0,0,0,0,0,0,0,0,0,0,0,0,0,1.6504,1.6542,1.6458,1.6456,1.6455,1.6414,1.6413,1.6413,1.6421,1.6422,1.6423,1.6424,1.6374,1.637,1.6367,1.6323,0,0,1.6358,1.6356,0,0,0,0,0,0,0,0,1.6506,1.65,1.6457,1.6456,1.6455,1.6424,1.6425,1.6382,1.642,1.6434,1.6423,1.6425,1.6388,1.6384,1.6373,1.6321,1.6319,1.6357,1.6355,1.6354,1.6353,0,0,0,0,0,0,0,1.6509,1.6502,1.644,1.6456,1.6455,1.6455,1.6451,1.6417,1.6404,1.6433,1.6433,1.6428,1.6388,1.6376,1.6371,1.6318,1.6357,1.6355,1.6353,1.6351,1.6228,1.6227,0,0,0,0,0,0,1.6513,1.6505,1.6442,1.6439,1.6484,1.6453,1.6448,1.6433,1.6405,1.6402,1.6427,1.6429,1.6381,1.6375,1.637,1.6316,1.6354,1.6351,1.6349,1.6229,1.6228,1.6226,0,0,0,0,0,0,1.6515,1.6507,1.6444,1.6472,1.6464,1.645,1.6433,1.6431,1.6419,1.6401,1.6398,1.6417,1.6381,1.6374,1.6335,1.6314,1.635,1.6347,1.6231,1.6229,1.6227,1.6209,0,0,0,0,0,0,1.6517,1.6508,1.6492,1.6472,1.6462,1.6411,1.6432,1.643,1.6415,1.6416,1.6391,1.6388,1.6382,1.634,1.6332,1.6311,1.6344,1.6233,1.623,1.6227,1.6211,1.6206,1.6202,0,0,0,0,0,1.652,1.6488,1.6492,1.6484,1.6443,1.641,1.6405,1.64,1.6413,1.6396,1.6384,1.6389,1.6318,1.6336,1.6327,1.6304,1.6234,1.6231,1.6228,1.6213,1.6207,1.6203,0,0,0,0,0,0,1.6504,1.6485,1.6489,1.6449,1.6432,1.6412,1.6391,1.6394,1.6371,1.6373,1.6367,1.6361,1.6321,1.6309,1.6329,1.626,1.6278,1.6273,1.627,1.6264,1.626,1.6263,1.6342,0,0,0,0,0,1.6496,1.6473,1.6457,1.6423,1.6415,1.6404,1.639,1.6388,1.6369,1.636,1.6346,1.6325,1.6298,1.6281,1.6255,1.621,1.6204,1.619,1.6186,1.6182,1.6177,1.6152,1.6145,1.6216,1.6216,1.6216,0,0,1.6479,1.6466,1.6451,1.642,1.6406,1.638,1.6398,1.637,1.635,1.6355,1.6318,1.6307,1.6283,1.6241,1.6222,1.623,1.6157,1.6178,1.6175,1.6172,1.6148,1.6141,1.6135,1.6214,1.6214,1.6215,0,0,1.6434,1.6423,1.6393,1.638,1.6359,1.6353,1.6346,1.6326,1.6319,1.6282,1.6286,1.6261,1.6216,1.6199,1.6184,1.6134,1.6137,1.6126,1.6102,1.6077,1.6072,1.6067,1.6048,1.6041,1.6122,1.6121,1.6121,0,1.6415,1.6379,1.6377,1.635,1.6335,1.6341,1.631,1.6296,1.6268,1.6257,1.6267,1.621,1.6195,1.6148,1.6136,1.6125,1.6115,1.6128,1.6073,1.6068,1.6063,1.6045,1.6038,1.612,1.612,1.612,1.6121,0,1.6355,1.633,1.6308,1.6283,1.6266,1.6237,1.623,1.6212,1.6212,1.6204,1.6166,1.6148,1.6119,1.6108,1.6107,1.6061,1.6067,1.6075,1.6092,1.6055,1.6038,1.6031,1.6118,1.6119,1.6119,1.612,0,0,1.6297,1.6273,1.6265,1.6254,1.6232,1.6212,1.6182,1.6156,1.6141,1.6121,1.6095,1.6057,1.6065,1.6048,1.6045,1.6024,1.5984,1.6034,1.6034,1.6025,1.5932,1.5925,1.5917,1.5987,1.5985,1.5984,1.5934,0,1.625,1.6201,1.6199,1.6153,1.6129,1.6135,1.6109,1.6092,1.6084,1.6061,1.6051,1.6024,1.6037,1.6027,1.6006,1.5994,1.5965,1.5997,1.596,1.5959,1.5965,1.5908,1.5901,1.5854,1.5927,1.5926,1.5925,0,1.6188,1.6169,1.6121,1.6104,1.6093,1.607,1.6046,1.6025,1.6005,1.6,1.5983,1.5983,1.5951,1.5971,1.5926,1.5948,1.5932,1.5924,1.5922,1.5917,1.5939,1.5901,1.5839,1.5831,1.5915,1.5916,1.5916,0,1.615,1.6112,1.6078,1.6069,1.6047,1.6031,1.6021,1.6003,1.5987,1.5965,1.5955,1.5929,1.5914,1.5893,1.5886,1.5901,1.5841,1.586,1.5834,1.5834,1.582,1.5821,1.5754,1.5813,1.5813,1.5813,1.5813,0,1.6097,1.6067,1.6061,1.604,1.6007,1.6005,1.5971,1.5961,1.5945,1.5921,1.5925,1.5902,1.5894,1.5869,1.5863,1.5826,1.582,1.5814,1.5812,1.5813,1.5813,1.5802,1.5804,1.5811,1.5811,1.5812,1.5812,0,1.6048,1.6043,1.6007,1.599,1.5985,1.5961,1.5946,1.5925,1.5918,1.5888,1.5881,1.5869,1.584,1.5831,1.5795,1.5791,1.5748,1.575,1.5755,1.5755,1.5729,1.5731,1.5651,1.564,1.5707,1.5707,1.5706,0,1.6014,1.5991,1.5973,1.5959,1.5948,1.5924,1.5909,1.5906,1.5889,1.5866,1.5847,1.582,1.5797,1.575,1.5737,1.571,1.571,1.5684,1.5706,1.5707,1.5708,1.5709,1.5707,1.5679,1.5679,1.5678,1.5678,0,1.5953,1.5952,1.5931,1.5909,1.5891,1.5873,1.5856,1.5843,1.5837,1.5818,1.579,1.5772,1.5738,1.5709,1.5682,1.5669,1.5671,1.5671,1.5664,1.5663,1.5667,1.5664,1.5743,1.5673,1.5673,1.5674,1.5674,1.5674,1.591,1.589,1.5874,1.5851,1.5838,1.5822,1.5801,1.5793,1.577,1.5742,1.5742,1.571,1.5691,1.5655,1.5641,1.5616,1.5623,1.5612,1.5609,1.5606,1.5604,1.5673,1.5611,1.5611,1.5611,1.5611,1.5611,0,1.5848,1.5839,1.5818,1.5794,1.5775,1.5782,1.5763,1.5746,1.572,1.5702,1.5681,1.5648,1.5621,1.5606,1.5578,1.5561,1.5561,1.5553,1.5554,1.5551,1.5599,1.5608,1.5553,1.5553,1.5553,1.5553,1.5553,1.5553,1.5814,1.5781,1.5778,1.5738,1.5729,1.57,1.5689,1.5673,1.566,1.5623,1.5602,1.5593,1.5577,1.5548,1.5523,1.5519,1.5508,1.5499,1.5496,1.5541,1.5547,1.5553,1.5561,1.5497,1.5497,1.5449,1.5449,1.5448]}]]